Weather History for Baker, OR

Change the Weather History Date:

Wednesday, September 18, 2013

  Actual Average Record
Temperature  
Mean Temperature 48 °F 55 °F  
Max Temperature 63 °F 74 °F 95 °F (1981)
Min Temperature 32 °F 36 °F 19 °F (1965)
Degree Days  
Heating Degree Days 17 10  
Month to date heating degree days 51 137  
Since 1 July heating degree days 83 288  
Cooling Degree Days 0 0  
Month to date cooling degree days 28 7  
Year to date cooling degree days 258 167  
Moisture  
Dew Point 38 °F    
Average Humidity 64    
Maximum Humidity 92    
Minimum Humidity 36    
Precipitation  
Precipitation 0.00 in 0.02 in 0.39 in (1980)
Month to date precipitation 0.72 0.35  
Year to date precipitation 6.87 7.42  
Sea Level Pressure  
Sea Level Pressure 30.05 in    
Wind  
Wind Speed 4 mph (WNW)    
Max Wind Speed 3 mph    
Max Gust Speed 5 mph    
Visibility 10 miles    
Events      
T = Trace of Precipitation, MM = Missing Value Source: NWS Daily Summary

Daily Weather History Graph

Daily Weather History Graph

Search for Another Location

Airport:

Trip Planner

Search our weather history database for the weather conditions in past years. The results will help you decide how hot, cold, wet, or windy it might be!

Date:

Astronomy

Sep. 18, 2013 Rise Set
Actual Time 6:33 AM PDT 6:55 PM PDT
Civil Twilight 6:04 AM PDT 7:24 PM PDT
Nautical Twilight 5:30 AM PDT 7:59 PM PDT
Astronomical Twilight 4:54 AM PDT 8:34 PM PDT
Moon 6:20 PM PDT (9/18) 5:41 AM PDT (9/18)
Length of Visible Light 13h 20m
Length of Day
12h 21m
Waxing Gibbous, 99% of the Moon is Illuminated
Sep 18
Waxing Gibbous
Sep 19
Full
Sep 26
Last Quarter
Oct 4
New
Oct 11
First Quarter

Hourly Weather History & Observations

Time (PDT) Temp. Windchill Dew Point Humidity Pressure Visibility Wind Dir Wind Speed Gust Speed Precip Events Conditions
12:53 AM 46.0 °F 42.5 °F 39.0 °F 76% 29.90 in 10.0 mi West 6.9 mph - N/A   Clear
1:53 AM 42.1 °F 40.2 °F 39.0 °F 89% 29.94 in 10.0 mi East 3.5 mph - N/A   Scattered Clouds
2:53 AM 48.0 °F - 39.0 °F 71% 29.94 in 10.0 mi SW 3.5 mph - N/A   Overcast
3:53 AM 45.0 °F 43.5 °F 39.0 °F 80% 29.96 in 10.0 mi NNE 3.5 mph - N/A   Mostly Cloudy
4:53 AM 43.0 °F 40.3 °F 37.0 °F 80% 29.98 in 10.0 mi WSW 4.6 mph - N/A   Clear
5:53 AM 44.1 °F 39.5 °F 37.0 °F 76% 29.99 in 10.0 mi NW 8.1 mph - N/A   Clear
6:53 AM 39.0 °F - 36.0 °F 89% 30.03 in 10.0 mi Calm Calm - N/A   Partly Cloudy
7:53 AM 46.0 °F 43.9 °F 39.9 °F 79% 30.04 in 10.0 mi South 4.6 mph - N/A   Overcast
8:53 AM 50.0 °F - 39.9 °F 68% 30.04 in 10.0 mi East 3.5 mph - N/A   Mostly Cloudy
9:53 AM 55.0 °F - 39.9 °F 57% 30.05 in 10.0 mi Variable 3.5 mph - N/A   Scattered Clouds
10:53 AM 54.0 °F - 39.9 °F 59% 30.06 in 10.0 mi West 5.8 mph - N/A   Overcast
11:53 AM 55.9 °F - 39.9 °F 55% 30.06 in 10.0 mi NNW 8.1 mph - N/A   Overcast
12:18 PM 57.2 °F - 39.2 °F 51% 30.07 in 2.5 mi North 8.1 mph - N/A   Haze
12:27 PM 57.2 °F - 37.4 °F 48% 30.07 in 10.0 mi NW 8.1 mph - N/A   Overcast
12:53 PM 57.0 °F - 37.9 °F 49% 30.06 in 10.0 mi WNW 5.8 mph - N/A   Overcast
1:53 PM 60.1 °F - 39.0 °F 46% 30.07 in 10.0 mi NNW 8.1 mph - N/A   Mostly Cloudy
2:53 PM 60.1 °F - 37.0 °F 42% 30.06 in 10.0 mi NW 11.5 mph - N/A   Mostly Cloudy
3:53 PM 62.1 °F - 35.1 °F 37% 30.05 in 10.0 mi WNW 4.6 mph - N/A   Scattered Clouds
4:53 PM 61.0 °F - 34.0 °F 36% 30.06 in 10.0 mi NNW 3.5 mph - N/A   Partly Cloudy
5:53 PM 59.0 °F - 36.0 °F 42% 30.06 in 10.0 mi Calm Calm - N/A   Clear
6:53 PM 52.0 °F - 37.9 °F 59% 30.09 in 10.0 mi NNW 3.5 mph - N/A   Clear
7:53 PM 46.0 °F 43.9 °F 37.0 °F 71% 30.12 in 10.0 mi WSW 4.6 mph - N/A   Clear
8:53 PM 44.1 °F - 37.0 °F 76% 30.13 in 10.0 mi Calm Calm - N/A   Clear
9:54 PM 39.9 °F 37.8 °F 35.1 °F 83% 30.14 in - SW 3.5 mph - N/A   Unknown
10:53 PM 37.9 °F - 35.1 °F 89% 30.16 in 10.0 mi Calm Calm - N/A   Clear
11:53 PM 37.0 °F - 35.1 °F 93% 30.15 in 10.0 mi Calm Calm - N/A   Clear